• In Switzerland
  • List of Countries
  • For 7 days
  • Water Temperature
  • Satellite Maps
  • Weather Map
  • Weather Widgets
  • user-avatar
    Login

    Hourly Weather Holhol

    Today, 17 December, Sunday

    Time Temperature Precipitation Wind Pressure Humidity
    00:00 +22°C° 0 mm 3 mps 716 mmHg 75%
    01:00 +22°C° 0 mm 3 mps 716 mmHg 76%
    02:00 +22°C° 0 mm 3 mps 716 mmHg 77%
    03:00 +21°C° 0 mm 2 mps 716 mmHg 78%
    04:00 +21°C° 0 mm 2 mps 716 mmHg 79%
    05:00 +21°C° 0 mm 2 mps 716 mmHg 81%
    06:00 +21°C° 0 mm 2 mps 716 mmHg 82%
    07:00 +22°C° 0 mm 3 mps 717 mmHg 77%
    08:00 +24°C° 0 mm 3 mps 717 mmHg 71%
    09:00 +25°C° 0 mm 4 mps 717 mmHg 65%
    10:00 +26°C° 0 mm 4 mps 717 mmHg 61%
    11:00 +27°C° 0 mm 5 mps 717 mmHg 57%
    12:00 +28°C° 0 mm 5 mps 717 mmHg 54%
    13:00 +28°C° 0 mm 6 mps 717 mmHg 54%
    14:00 +28°C° 0 mm 6 mps 716 mmHg 54%
    15:00 +28°C° 0 mm 7 mps 716 mmHg 54%
    16:00 +27°C° 0 mm 7 mps 716 mmHg 58%
    17:00 +26°C° 0 mm 6 mps 716 mmHg 62%
    18:00 +24°C° 0 mm 6 mps 716 mmHg 66%
    19:00 +25°C° 0 mm 5 mps 716 mmHg 68%
    20:00 +23°C° 0 mm 5 mps 717 mmHg 70%
    21:00 +23°C° 0 mm 4 mps 717 mmHg 72%
    22:00 +22°C° 0 mm 4 mps 717 mmHg 74%
    23:00 +22°C° 0 mm 4 mps 717 mmHg 76%

    Tomorrow, 18 December, Monday

    Time Temperature Precipitation Wind Pressure Humidity
    00:00 +22°C° 0 mm 4 mps 717 mmHg 78%
    01:00 +22°C° 0 mm 4 mps 717 mmHg 78%
    02:00 +22°C° 0 mm 4 mps 717 mmHg 79%
    03:00 +21°C° 0 mm 3 mps 717 mmHg 79%
    04:00 +21°C° 0 mm 3 mps 717 mmHg 80%
    05:00 +21°C° 0 mm 3 mps 717 mmHg 80%
    06:00 +21°C° 0 mm 3 mps 718 mmHg 81%
    07:00 +22°C° 0 mm 3 mps 718 mmHg 75%
    08:00 +23°C° 0 mm 4 mps 719 mmHg 70%
    09:00 +23°C° 0 mm 4 mps 719 mmHg 64%
    10:00 +26°C° 0 mm 5 mps 719 mmHg 59%
    11:00 +27°C° 0 mm 6 mps 718 mmHg 53%
    12:00 +28°C° 0 mm 6 mps 718 mmHg 47%
    13:00 +28°C° 0 mm 7 mps 717 mmHg 48%
    14:00 +28°C° 0 mm 7 mps 717 mmHg 48%
    15:00 +28°C° 0 mm 7 mps 716 mmHg 49%
    16:00 +27°C° 0 mm 7 mps 716 mmHg 54%
    17:00 +26°C° 0 mm 6 mps 716 mmHg 59%
    18:00 +24°C° 0 mm 6 mps 716 mmHg 64%
    19:00 +24°C° 0 mm 6 mps 717 mmHg 66%
    20:00 +23°C° 0 mm 6 mps 717 mmHg 68%
    21:00 +23°C° 0 mm 5 mps 718 mmHg 71%
    22:00 +23°C° 0 mm 5 mps 718 mmHg 72%
    23:00 +22°C° 0 mm 5 mps 718 mmHg 73%

    Day after tomorrow, 19 December, Tuesday

    Time Temperature Precipitation Wind Pressure Humidity
    00:00 +22°C° 0 mm 5 mps 717 mmHg 75%
    01:00 +22°C° 0 mm 4 mps 717 mmHg 76%
    02:00 +22°C° 0 mm 4 mps 717 mmHg 78%
    03:00 +21°C° 0 mm 4 mps 717 mmHg 79%
    04:00 +21°C° 0.1 mm 3 mps 717 mmHg 80%
    05:00 +21°C° 0.1 mm 3 mps 717 mmHg 80%
    06:00 +21°C° 0.1 mm 3 mps 717 mmHg 81%
    07:00 +22°C° 0.1 mm 4 mps 718 mmHg 74%
    08:00 +23°C° 0.1 mm 5 mps 719 mmHg 67%
    09:00 +24°C° 0.1 mm 6 mps 719 mmHg 60%
    10:00 +26°C° 0 mm 7 mps 719 mmHg 55%
    11:00 +27°C° 0 mm 7 mps 719 mmHg 50%
    12:00 +28°C° 0 mm 8 mps 719 mmHg 45%
    13:00 +28°C° 0 mm 8 mps 718 mmHg 44%
    14:00 +28°C° 0 mm 8 mps 717 mmHg 42%
    15:00 +28°C° 0 mm 8 mps 717 mmHg 41%
    16:00 +27°C° 0 mm 8 mps 717 mmHg 45%
    17:00 +26°C° 0 mm 7 mps 717 mmHg 49%
    18:00 +24°C° 0 mm 7 mps 717 mmHg 53%
    19:00 +23°C° 0 mm 6 mps 718 mmHg 55%
    20:00 +23°C° 0 mm 6 mps 718 mmHg 58%
    21:00 +23°C° 0 mm 6 mps 719 mmHg 60%
    22:00 +22°C° 0 mm 5 mps 719 mmHg 61%
    23:00 +22°C° 0 mm 5 mps 718 mmHg 62%

    20 December, Wednesday

    Time Temperature Precipitation Wind Pressure Humidity
    00:00 +22°C° 0 mm 4 mps 718 mmHg 62%
    01:00 +21°C° 0 mm 4 mps 718 mmHg 62%
    02:00 +21°C° 0 mm 3 mps 718 mmHg 62%
    03:00 +20°C° 0 mm 3 mps 717 mmHg 62%
    04:00 +20°C° 0 mm 3 mps 718 mmHg 62%
    05:00 +20°C° 0 mm 2 mps 718 mmHg 61%
    06:00 +19°C° 0 mm 2 mps 718 mmHg 61%
    07:00 +21°C° 0 mm 3 mps 719 mmHg 57%
    08:00 +22°C° 0 mm 4 mps 720 mmHg 53%
    09:00 +23°C° 0 mm 5 mps 720 mmHg 49%
    10:00 +24°C° 0 mm 6 mps 720 mmHg 45%
    11:00 +26°C° 0 mm 7 mps 720 mmHg 40%
    12:00 +28°C° 0 mm 7 mps 720 mmHg 36%
    13:00 +28°C° 0 mm 7 mps 719 mmHg 36%
    14:00 +28°C° 0 mm 7 mps 718 mmHg 36%
    15:00 +28°C° 0 mm 7 mps 717 mmHg 36%
    16:00 +27°C° 0 mm 7 mps 718 mmHg 40%
    17:00 +26°C° 0 mm 7 mps 718 mmHg 44%
    18:00 +24°C° 0 mm 6 mps 718 mmHg 47%
    19:00 +23°C° 0 mm 6 mps 719 mmHg 50%
    20:00 +23°C° 0 mm 5 mps 719 mmHg 54%
    21:00 +22°C° 0 mm 5 mps 720 mmHg 57%
    22:00 +22°C° 0 mm 5 mps 719 mmHg 59%
    23:00 +22°C° 0 mm 4 mps 719 mmHg 62%

    21 December, Thursday

    Time Temperature Precipitation Wind Pressure Humidity
    00:00 +21°C° 0 mm 4 mps 719 mmHg 64%
    01:00 +21°C° 0 mm 3 mps 719 mmHg 65%
    02:00 +21°C° 0 mm 3 mps 719 mmHg 67%
    03:00 +21°C° 0 mm 3 mps 718 mmHg 68%
    04:00 +20°C° 0 mm 2 mps 719 mmHg 69%
    05:00 +20°C° 0 mm 2 mps 719 mmHg 70%
    06:00 +20°C° 0 mm 2 mps 719 mmHg 70%
    07:00 +21°C° 0 mm 3 mps 720 mmHg 65%
    08:00 +22°C° 0 mm 4 mps 720 mmHg 61%
    09:00 +23°C° 0 mm 5 mps 721 mmHg 56%
    10:00 +24°C° 0 mm 6 mps 720 mmHg 51%
    11:00 +26°C° 0 mm 6 mps 720 mmHg 47%
    12:00 +27°C° 0 mm 7 mps 720 mmHg 42%
    13:00 +27°C° 0 mm 7 mps 719 mmHg 41%
    14:00 +27°C° 0 mm 7 mps 718 mmHg 41%
    15:00 +27°C° 0 mm 7 mps 718 mmHg 40%
    16:00 +27°C° 0 mm 7 mps 718 mmHg 43%
    17:00 +26°C° 0 mm 7 mps 718 mmHg 46%
    18:00 +24°C° 0 mm 6 mps 718 mmHg 49%
    19:00 +23°C° 0 mm 6 mps 719 mmHg 51%
    20:00 +23°C° 0 mm 5 mps 719 mmHg 53%
    21:00 +23°C° 0 mm 5 mps 719 mmHg 55%
    22:00 +22°C° 0 mm 4 mps 719 mmHg 56%
    23:00 +22°C° 0 mm 3 mps 719 mmHg 58%

    22 December, Friday

    Time Temperature Precipitation Wind Pressure Humidity
    00:00 +21°C° 0 mm 3 mps 719 mmHg 60%
    01:00 +21°C° 0 mm 2 mps 718 mmHg 61%
    02:00 +21°C° 0 mm 2 mps 718 mmHg 63%
    03:00 +21°C° 0 mm 1 mps 718 mmHg 64%
    04:00 +21°C° 0 mm 1 mps 718 mmHg 65%
    05:00 +21°C° 0 mm 1 mps 718 mmHg 66%
    06:00 +20°C° 0 mm 1 mps 719 mmHg 68%
    07:00 +21°C° 0 mm 2 mps 719 mmHg 64%
    08:00 +22°C° 0 mm 3 mps 720 mmHg 61%
    09:00 +23°C° 0 mm 4 mps 720 mmHg 58%
    10:00 +25°C° 0 mm 5 mps 720 mmHg 51%
    11:00 +26°C° 0 mm 6 mps 719 mmHg 45%
    12:00 +27°C° 0 mm 7 mps 719 mmHg 39%
    13:00 +28°C° 0 mm 7 mps 718 mmHg 38%
    14:00 +28°C° 0 mm 7 mps 717 mmHg 37%
    15:00 +28°C° 0 mm 7 mps 716 mmHg 36%
    16:00 +27°C° 0 mm 7 mps 716 mmHg 40%
    17:00 +26°C° 0 mm 6 mps 717 mmHg 43%
    18:00 +24°C° 0 mm 6 mps 717 mmHg 46%
    19:00 +23°C° 0 mm 6 mps 717 mmHg 49%
    20:00 +23°C° 0 mm 5 mps 717 mmHg 52%
    21:00 +23°C° 0 mm 5 mps 717 mmHg 54%
    22:00 +22°C° 0 mm 4 mps 717 mmHg 56%
    23:00 +22°C° 0 mm 3 mps 717 mmHg 57%
    Show more